Wheeling, WV

4:22 PM EDT on April 30, 2017 (GMT -0400)
Wheeling-Ohio County

Weather History for KHLG - September, 2013

Change the Weather History Date:

Monday, September 9, 2013

  Actual Average Record
Temperature  
Mean Temperature 71 °F 67 °F  
Max Temperature 84 °F 77 °F 91 °F (2002)
Min Temperature 58 °F 57 °F 42 °F (1949)
Degree Days  
Heating Degree Days 0 1  
Month to date heating degree days 9 9  
Since 1 July heating degree days 25 20  
Cooling Degree Days 6    
Month to date cooling degree days 30  
Year to date cooling degree days 665  
Growing Degree Days 20 (Base 50)    
Moisture  
Dew Point 64 °F    
Average Humidity 79    
Maximum Humidity 97    
Minimum Humidity 61    
Precipitation  
Precipitation 0.19 in 0.09 in 0.89 in (2016)
Month to date precipitation 0.56 0.79  
Sea Level Pressure  
Sea Level Pressure 30.07 in    
Wind  
Wind Speed 5 mph (SSE)    
Max Wind Speed 13 mph    
Max Gust Speed 17 mph    
Visibility 8 miles    
Events Rain    
T = Trace of Precipitation, MM = Missing Value Source: NWS Daily Summary

Daily Weather History Graph

Daily Weather History Graph

Search for Another Location

Airport or City:

Trip Planner

Search our weather history database for the weather conditions in past years. The results will help you decide how hot, cold, wet, or windy it might be!

Date:

Astronomy

Sep. 09, 2013 Rise Set
Actual Time 6:58 AM EDT 7:40 PM EDT
Civil Twilight 6:30 AM EDT 8:08 PM EDT
Nautical Twilight 5:58 AM EDT 8:40 PM EDT
Astronomical Twilight 5:24 AM EDT 9:14 PM EDT
Moon 11:18 AM EDT (9/9) 9:56 PM EDT (9/9)
Length of Visible Light 13h 37m
Length of Day
12h 42m
Waxing Crescent, 19% of the Moon is Illuminated
Sep 9
Waxing Crescent
Sep 12
First Quarter
Sep 19
Full
Sep 26
Last Quarter
Oct 4
New

Hourly Weather History & Observations

Time (EDT) Temp. Heat Index Dew Point Humidity Pressure Visibility Wind Dir Wind Speed Gust Speed Precip Events Conditions
12:53 AM 60.1 °F - 57.9 °F 93% 30.06 in 10.0 mi NE 5.8 mph - N/A   Clear
1:53 AM 61.0 °F - 57.9 °F 90% 30.06 in 10.0 mi Calm Calm - N/A   Clear
2:53 AM 59.0 °F - 57.0 °F 93% 30.06 in 10.0 mi NE 4.6 mph - N/A   Clear
3:53 AM 59.0 °F - 57.0 °F 93% 30.06 in 10.0 mi Calm Calm - N/A   Partly Cloudy
4:53 AM 57.9 °F - 55.9 °F 93% 30.07 in 10.0 mi ENE 4.6 mph - N/A   Scattered Clouds
5:53 AM 60.1 °F - 57.0 °F 90% 30.07 in 10.0 mi East 3.5 mph - N/A   Mostly Cloudy
6:53 AM 60.1 °F - 57.0 °F 90% 30.08 in 10.0 mi East 4.6 mph - N/A   Mostly Cloudy
7:53 AM 61.0 °F - 59.0 °F 93% 30.09 in 10.0 mi Calm Calm - N/A   Mostly Cloudy
8:53 AM 64.0 °F - 61.0 °F 90% 30.09 in 10.0 mi East 3.5 mph - N/A   Scattered Clouds
9:53 AM 66.0 °F - 63.0 °F 90% 30.10 in 1.8 mi South 3.5 mph - 0.06 in Rain Light Rain
10:01 AM 64.4 °F - 64.4 °F 100% 30.11 in 0.8 mi SE 8.1 mph - 0.12 in Rain Heavy Rain
10:07 AM 66.2 °F - 64.4 °F 94% 30.11 in 2.5 mi Calm Calm - 0.13 in Rain Light Rain
10:15 AM 66.2 °F - 64.4 °F 94% 30.11 in 3.0 mi Calm Calm - 0.13 in   Mostly Cloudy
10:29 AM 66.2 °F - 64.4 °F 94% 30.11 in 2.5 mi Calm Calm - 0.13 in   Overcast
10:38 AM 69.8 °F - 66.2 °F 88% 30.11 in 3.0 mi SE 3.5 mph - 0.13 in   Overcast
10:53 AM 70.0 °F - 66.9 °F 90% 30.10 in 5.0 mi SSE 5.8 mph - 0.13 in   Overcast
11:53 AM 75.0 °F - 69.1 °F 82% 30.09 in 8.0 mi South 3.5 mph - N/A   Clear
12:53 PM 79.0 °F - 69.1 °F 72% 30.08 in 10.0 mi South 9.2 mph - N/A   Clear
1:53 PM 81.0 °F 84.4 °F 70.0 °F 69% 30.06 in 9.0 mi SSW 11.5 mph - N/A   Mostly Cloudy
2:53 PM 84.0 °F 87.8 °F 69.1 °F 61% 30.05 in 10.0 mi SSW 9.2 mph - N/A   Partly Cloudy
3:53 PM 82.0 °F 84.9 °F 68.0 °F 62% 30.03 in 10.0 mi SSW 6.9 mph - N/A   Partly Cloudy
4:53 PM 82.0 °F 84.9 °F 68.0 °F 62% 30.02 in 9.0 mi SW 6.9 mph - N/A   Partly Cloudy
5:53 PM 81.0 °F 83.3 °F 66.9 °F 62% 30.02 in 9.0 mi SW 9.2 mph - N/A   Clear
6:53 PM 79.0 °F - 68.0 °F 69% 30.02 in 8.0 mi SSW 8.1 mph - N/A   Partly Cloudy
7:53 PM 78.1 °F - 68.0 °F 71% 30.04 in 8.0 mi South 5.8 mph - N/A   Mostly Cloudy
8:53 PM 75.0 °F - 68.0 °F 79% 30.05 in 8.0 mi SSE 5.8 mph - N/A   Mostly Cloudy
9:53 PM 75.0 °F - 68.0 °F 79% 30.05 in 9.0 mi South 5.8 mph - N/A   Scattered Clouds
10:53 PM 73.9 °F - 68.0 °F 82% 30.06 in 8.0 mi South 5.8 mph - N/A   Clear
11:53 PM 72.0 °F - 68.0 °F 87% 30.06 in 8.0 mi South 5.8 mph - N/A   Clear